Simultaneous Nadir Overpasses (SNOs) Predictions

Prediction of SNOs between LANDSAT-8 and NPP Satellite Orbit:

Table of predicted SNOs for the next 14.0 days since TLE Epoch: 11/14/2016
Index Date (LANDSAT-8) Time (LANDSAT-8) Lat,Lon (LANDSAT-8) SZA (LANDSAT-8 ) Date (NPP) Time (NPP) Lat,Lon (NPP) SZA (NPP ) Distance(km) Time Diff (sec)
1 11/16/2016 14:42:16 -70.11, 135.96 91.07 11/16/2016 14:41:31 -70.11, 136.03 91.06 2.82 45
2 11/16/2016 15:31:43 70.01, -56.54 88.84 11/16/2016 15:32:15 70.01, -56.50 88.85 1.61 32
3 11/19/2016 06:09:05 70.78, 85.19 90.24 11/19/2016 06:07:56 70.84, 83.33 90.30 68.62 69
4 11/19/2016 06:58:45 -70.12,-108.14 90.42 11/19/2016 06:58:26 -70.10,-108.19 90.44 2.43 19
5 11/19/2016 07:48:12 70.02, 59.35 89.49 11/19/2016 07:49:10 70.00, 59.28 89.47 3.25 58
6 11/21/2016 22:25:44 70.18,-159.82 90.23 11/21/2016 22:24:37 70.15,-159.81 90.20 2.77 67
7 11/21/2016 23:15:14 -70.07, 7.66 89.88 11/21/2016 23:15:19 -70.04, 7.67 89.90 2.79 5
8 11/22/2016 00:04:47 69.63, 174.70 89.69 11/22/2016 00:05:57 69.63, 175.60 89.69 34.93 70
9 11/24/2016 14:42:14 70.11, -44.03 90.71 11/24/2016 14:41:31 70.10, -43.96 90.70 2.97 43
10 11/24/2016 15:31:44 -70.01, 123.46 89.39 11/24/2016 15:32:14 -70.04, 123.44 89.36 3.45 30
11 11/27/2016 06:09:04 -70.86, -94.68 88.04 11/27/2016 06:07:56 -70.92, -96.82 87.97 78.27 68
12 11/27/2016 06:58:43 70.10, 71.83 91.20 11/27/2016 06:58:26 70.10, 71.80 91.21 1.13 17
13 11/27/2016 07:48:13 -69.99,-120.68
